Regional Weather Roundup
Issued by NWS Goodland, KS

Home | Current Version | Previous Version | Text Only | Print | Product List | Glossary Off
Versions: 1 2 3 4 5 6 7 8 9 10 11 12 13 14 15 16 17 18 19 20 21 22 23 24 25 26 27 28 29 30 31 32 33 34 35 36 37 38 39 40 41 42 43 44 45 46 47 48 49 50

000
ASUS43 KGLD 261759
RWRGLD

GOODLAND FORECAST AREA HOURLY WEATHER ROUNDUP
NATIONAL WEATHER SERVICE GOODLAND KS
1100 AM MST MON JAN 26 2015

...OFFICIAL OBSERVATIONS...

CITY           SKY/WX    TMP DP  RH WIND       PRES   REMARKS
GOODLAND KS    SUNNY     62  31  31 N22       30.19S
HILL CITY KS   SUNNY     65  32  29 NW16G28   30.09S
IMPERIAL NEB   SUNNY     62  29  28 NW24      30.15S
MCCOOK NEB     SUNNY     64  32  30 NW13      30.10F
AKRON CO       SUNNY     52  30  43 NW8       30.24S
BURLINGTON CO  SUNNY     61  31  32 NW15      30.23S
LIMON CO       SUNNY     61  25  25 NW10      30.29S
$$

...UNOFFICIAL OBSERVATIONS...

CITY           SKY/WX    TMP DP  RH WIND       PRES   REMARKS
COLBY KS       SUNNY     63  37  39 NW16      30.17S
GOVE KS          N/A     64  32  30 MISG        N/A
NORTON KS      SUNNY     63  27  25 NW17G23   30.07F
SHARON SPRINGS   N/A     63  33  33 NW20        N/A
KIT CARSON CO    N/A     64  31  29 MISG        N/A
YUMA CO          N/A     57  33  40 W17         N/A
$$



USA.gov is the U.S. government's official web portal to all federal, state and local government web resources and services.